YBUD

Details ICAO YBUD (BDB)
Name Bundaberg
Region Australia
Timezone Australia/Brisbane (UTC+10.0)
Plans Departing 27
Arriving 24
Stats Elevation 106 ft / 32 m (AMSL)
Location -24.903419° 152.320218°
Runways 2
Magnetic Variation 10.077° E
Sunrise 2018-05-26 20:26:47 UTC / 2018-05-27 06:26:47 Local
Sunset 2018-05-27 07:11:45 UTC / 2018-05-27 17:11:45 Local
Advertisement - Login to hide

Runways

ID Width Length Bearing (true) Bearing (mag) Surface Threshold Offset Overrun Length
07 95 ft / 29 m 3,704 ft / 1,129 m 68.50° 58.42° Grass 0 ft / 0 m 0 ft / 0 m
14 98 ft / 30 m 5,042 ft / 1,537 m 147.90° 137.82° Asphalt 331 ft / 101 m 30 ft / 9 m
25 95 ft / 29 m 3,704 ft / 1,129 m 248.50° 238.42° Grass 0 ft / 0 m 0 ft / 0 m
32 98 ft / 30 m 5,042 ft / 1,537 m 327.90° 317.82° Asphalt 0 ft / 0 m 39 ft / 12 m

Map

Weather


0- 5 10 15 20 25 30 35+ Temperature / ° C

Clouds and Precipitation
Forecast for 2018-05-27 12:00 UTC. Updated an hour ago

Ground ~20,000 ft ~40,000 ft Winds

METAR

YBUD 271200Z AUTO 19006KT 9999 // SCT066 17/15 Q1023

TAF

Not found

Frequencies

Unicom 119.60 MHz ACTIVATE LIGHTS ONLY MULT
Unicom 126.90 MHz BUNDABERG MULT
Unicom 124.10 MHz BRISBANE CENTRE MULT
Warning: Do not use this data for real-world aviation or navigation. No guarantee of current accuracy is given.